User: anonymous   Login
Location: Unspecified
(0.0000°N, 0.0000°E)
Time: 09:35:47
(UTC+00:00)
Language:

MERIDIAN 2 - Orbit

View from above orbital plane
View from above orbital plane
View from above satellite
View from above satellite

Ground track
Ground track

The orbit data is extracted from the following two-line orbital elements,

1 35008U 09029A   18018.01304860 +.00000098 +00000-0 +52440-3 0  9991
2 35008 064.3803 007.7592 7235828 252.6040 022.4782 02.24496588070893
Epoch (UTC): 18 January 2018 00:18:47
Eccentricity: 0.7235828
inclination: 64.3803°
perigee height: 432 km
apogee height: 36086 km
right ascension of ascending node: 7.7592°
argument of perigee: 252.6040°
revolutions per day: 2.24496588
mean anomaly at epoch: 22.4782°
orbit number at epoch: 7089

The dashed part of the orbit path shows where the satellite is in the earth's shadow,  

DLR